Mansfield, OH

3:31 AM EST on December 10, 2016 (GMT -0500)
Mansfield Lahm Regional

Weather History for KMFD - March, 2013

Change the Weather History Date:

Tuesday, March 19, 2013

  Actual Average Record
Temperature  
Mean Temperature 30 °F 38 °F  
Max Temperature 36 °F 47 °F 78 °F (2012)
Min Temperature 24 °F 29 °F 4 °F (1934)
Degree Days  
Heating Degree Days 35 27  
Month to date heating degree days 605 573  
Since 1 July heating degree days 4978 5198  
Cooling Degree Days 0 0  
Month to date cooling degree days 0 0  
Year to date cooling degree days 0 0  
Moisture  
Dew Point 22 °F    
Average Humidity 71    
Maximum Humidity 89    
Minimum Humidity 53    
Precipitation  
Precipitation T in 0.12 in 1.03 in (1963)
Month to date precipitation 1.49 1.92  
Year to date precipitation 6.22 7.18  
Snow  
Snow T in 0.20 in - ()
Month to date snowfall 4.8 5.6  
Since 1 July snowfall 34.6 43.5  
Snow Depth 0.00 in    
Sea Level Pressure  
Sea Level Pressure 29.83 in    
Wind  
Wind Speed 16 mph (WSW)    
Max Wind Speed 29 mph    
Max Gust Speed 38 mph    
Visibility 9 miles    
Events Snow    
T = Trace of Precipitation, MM = Missing Value Source: NWS Daily Summary

Daily Weather History Graph

Daily Weather History Graph

Search for Another Location

Airport or City:

Trip Planner

Search our weather history database for the weather conditions in past years. The results will help you decide how hot, cold, wet, or windy it might be!

Date:

Astronomy

Mar. 19, 2013 Rise Set
Actual Time 7:34 AM EDT 7:41 PM EDT
Civil Twilight 7:07 AM EDT 8:08 PM EDT
Nautical Twilight 6:35 AM EDT 8:40 PM EDT
Astronomical Twilight 6:02 AM EDT 9:13 PM EDT
Moon 12:21 PM EDT (3/19) 2:29 AM EDT (3/19)
Length of Visible Light 13h 01m
Length of Day
12h 06m
Waxing Crescent, 49% of the Moon is Illuminated
Mar 19
Waxing Crescent
Mar 19
First Quarter
Mar 27
Full
Apr 3
Last Quarter
Apr 10
New

Hourly Weather History & Observations

Time (EDT) Temp. Windchill Dew Point Humidity Pressure Visibility Wind Dir Wind Speed Gust Speed Precip Events Conditions
12:23 AM 35.6 °F 26.2 °F 32.0 °F 87% 29.72 in 10.0 mi WSW 15.0 mph 24.2 mph N/A   Overcast
12:52 AM 35.6 °F 26.6 °F 32.0 °F 87% 29.72 in 10.0 mi WSW 13.8 mph 21.9 mph N/A   Overcast
1:30 AM 35.6 °F 26.2 °F 32.0 °F 87% 29.72 in 10.0 mi WSW 15.0 mph 21.9 mph N/A   Overcast
1:38 AM 35.6 °F 26.6 °F 32.0 °F 87% 29.72 in 10.0 mi WSW 13.8 mph 23.0 mph N/A   Overcast
1:52 AM 35.1 °F 26.4 °F 32.0 °F 89% 29.75 in 7.0 mi WSW 12.7 mph 24.2 mph 0.00 in Snow Light Snow
2:34 AM 35.6 °F 26.6 °F 28.4 °F 75% 29.72 in 10.0 mi WSW 13.8 mph 27.6 mph 0.00 in   Overcast
2:52 AM 36.0 °F 28.0 °F 28.0 °F 73% 29.75 in 10.0 mi WSW 11.5 mph 25.3 mph 0.00 in   Overcast
3:32 AM 35.6 °F 27.1 °F 28.4 °F 75% 29.72 in 10.0 mi SW 12.7 mph - N/A   Overcast
3:43 AM 35.6 °F 28.6 °F 28.4 °F 75% 29.72 in 10.0 mi SW 9.2 mph - N/A   Overcast
3:52 AM 35.1 °F 26.4 °F 28.0 °F 76% 29.75 in 10.0 mi SW 12.7 mph - N/A   Overcast
4:15 AM 33.8 °F 24.3 °F 28.4 °F 81% 29.72 in 10.0 mi WSW 13.8 mph 25.3 mph N/A   Mostly Cloudy
4:25 AM 33.8 °F 22.8 °F 28.4 °F 81% 29.72 in 10.0 mi SW 18.4 mph 33.4 mph N/A   Mostly Cloudy
4:39 AM 33.8 °F 22.8 °F 24.8 °F 70% 29.73 in 10.0 mi SW 18.4 mph 32.2 mph N/A   Mostly Cloudy
4:49 AM 33.8 °F 23.9 °F 24.8 °F 70% 29.73 in 10.0 mi WSW 15.0 mph 28.8 mph N/A   Mostly Cloudy
4:52 AM 32.0 °F 21.6 °F 25.0 °F 75% 29.76 in 10.0 mi WSW 15.0 mph 25.3 mph N/A   Mostly Cloudy
5:52 AM 28.9 °F 18.2 °F 23.0 °F 78% 29.79 in 10.0 mi WSW 13.8 mph 27.6 mph N/A   Overcast
6:52 AM 28.9 °F 18.2 °F 23.0 °F 78% 29.78 in 10.0 mi WSW 13.8 mph 24.2 mph N/A   Overcast
7:52 AM 26.1 °F 11.6 °F 18.0 °F 71% 29.82 in 10.0 mi WSW 21.9 mph 31.1 mph N/A   Overcast
8:52 AM 24.1 °F 11.0 °F 15.1 °F 69% 29.83 in 10.0 mi WSW 16.1 mph 31.1 mph 0.00 in   Overcast
9:52 AM 25.0 °F 12.2 °F 17.1 °F 72% 29.83 in 8.0 mi WSW 16.1 mph 31.1 mph 0.00 in Snow Light Snow
10:52 AM 26.1 °F 14.0 °F 16.0 °F 66% 29.85 in 9.0 mi WSW 15.0 mph 27.6 mph 0.00 in Snow Light Snow
11:49 AM 26.6 °F 13.4 °F 17.6 °F 69% 29.82 in 4.0 mi WSW 18.4 mph 29.9 mph 0.00 in Snow Light Snow
11:52 AM 27.0 °F 13.5 °F 18.0 °F 69% 29.85 in 4.0 mi WSW 19.6 mph 29.9 mph 0.00 in Snow Light Snow
12:14 PM 26.6 °F 12.4 °F 17.6 °F 69% 29.83 in 4.0 mi WSW 21.9 mph 36.8 mph 0.00 in Snow Light Snow
12:22 PM 28.4 °F 13.8 °F 17.6 °F 64% 29.83 in 7.0 mi WSW 25.3 mph 36.8 mph 0.00 in Snow Light Snow
12:52 PM 28.9 °F 15.8 °F 17.1 °F 61% 29.86 in 9.0 mi WSW 20.7 mph 31.1 mph 0.00 in   Overcast
1:52 PM 30.0 °F 16.9 °F 16.0 °F 56% 29.88 in 10.0 mi WSW 21.9 mph 32.2 mph N/A   Overcast
2:52 PM 30.0 °F 17.2 °F 16.0 °F 56% 29.90 in 10.0 mi WSW 20.7 mph 38.0 mph 0.00 in   Overcast
3:52 PM 30.0 °F 18.7 °F 18.0 °F 61% 29.91 in 10.0 mi WSW 16.1 mph 35.7 mph 0.00 in   Overcast
4:52 PM 30.0 °F 17.2 °F 17.1 °F 59% 29.93 in 10.0 mi West 20.7 mph 31.1 mph 0.00 in   Overcast
5:52 PM 30.0 °F 15.7 °F 19.0 °F 64% 29.95 in 10.0 mi West 26.5 mph 35.7 mph 0.00 in   Overcast
6:52 PM 30.0 °F 17.9 °F 17.1 °F 59% 29.97 in 10.0 mi West 18.4 mph 32.2 mph N/A   Overcast
7:52 PM 30.0 °F 18.3 °F 18.0 °F 61% 29.97 in 10.0 mi WSW 17.3 mph 28.8 mph N/A   Overcast
8:52 PM 30.0 °F 20.0 °F 18.0 °F 61% 29.98 in 10.0 mi WSW 12.7 mph 19.6 mph N/A   Scattered Clouds
9:52 PM 30.0 °F 19.1 °F 18.0 °F 61% 30.00 in 10.0 mi WSW 15.0 mph 20.7 mph N/A   Clear
10:52 PM 30.0 °F 19.5 °F 17.1 °F 59% 30.00 in 10.0 mi WSW 13.8 mph - N/A   Clear
11:52 PM 28.9 °F 19.8 °F 17.1 °F 61% 30.00 in 10.0 mi West 10.4 mph - N/A   Clear